,,PA_Meas_PMT16A,,PR_Meas_QMR101_102,,RH_Meas_QMH101,,SR_Meas_QMS101,,TA_Meas_QMH101,,GenWind,,GenWind,
time,status,PA,status,PR,status,RH,status,SR,status,TA,status,DirAvg,status,SpdAvg,
2012-12-13, 00:00:05,VALID,918.004,VALID,0,VALID,95.6434,VALID,0.107441,VALID,20.6975,VALID,5,VALID,0,
2012-12-13, 00:01:05,VALID,917.988,VALID,0,VALID,95.5748,VALID,0.107441,VALID,20.7185,VALID,5,VALID,0,
2012-12-13, 00:02:05,VALID,917.974,VALID,0,VALID,95.5367,VALID,0.107441,VALID,20.678,VALID,5,VALID,0,
2012-12-13, 00:03:05,VALID,917.956,VALID,0,VALID,95.5519,VALID,0,VALID,20.699,VALID,5,VALID,0,
2012-12-13, 00:04:05,VALID,917.935,VALID,0,VALID,95.6129,VALID,0.107441,VALID,20.678,VALID,5,VALID,0,
2012-12-13, 00:05:05,VALID,917.906,VALID,0,VALID,95.529,VALID,0,VALID,20.6975,VALID,5,VALID,0,
2012-12-13, 00:06:05,VALID,917.926,VALID,0,VALID,95.6129,VALID,0,VALID,20.678,VALID,5,VALID,0,
2012-12-13, 00:07:05,VALID,917.92,VALID,0,VALID,95.651,VALID,0,VALID,20.678,VALID,5,VALID,0,
2012-12-13, 00:08:05,VALID,917.927,VALID,0,VALID,95.5519,VALID,0,VALID,20.678,VALID,5,VALID,0,
2012-12-13, 00:09:05,VALID,917.922,VALID,0,VALID,95.6357,VALID,0,VALID,20.699,VALID,5,VALID,0,
2012-12-13, 00:10:05,VALID,917.916,VALID,0,VALID,95.6662,VALID,0,VALID,20.6975,VALID,5,VALID,0,
2012-12-13, 00:11:05,VALID,917.935,VALID,0,VALID,95.59,VALID,0,VALID,20.678,VALID,5,VALID,0,
2012-12-13, 00:12:05,VALID,917.959,VALID,0,VALID,95.651,VALID,0,VALID,20.717,VALID,5,VALID,0,
2012-12-13, 00:13:05,VALID,917.959,VALID,0,VALID,95.5519,VALID,0,VALID,20.6975,VALID,5,VALID,0,
2012-12-13, 00:14:05,VALID,917.945,VALID,0,VALID,95.468,VALID,0.107441,VALID,20.6975,VALID,5,VALID,0,
2012-12-13, 00:15:05,VALID,917.947,VALID,0,VALID,95.3994,VALID,0,VALID,20.678,VALID,5,VALID,0,
2012-12-13, 00:16:05,VALID,917.913,VALID,0,VALID,95.3842,VALID,0,VALID,20.66,VALID,5,VALID,0,
2012-12-13, 00:17:05,VALID,917.88,VALID,0,VALID,95.3994,VALID,0,VALID,20.6795,VALID,5,VALID,0,
2012-12-13, 00:18:05,VALID,917.848,VALID,0,VALID,95.4604,VALID,0,VALID,20.66,VALID,5,VALID,0,
2012-12-13, 00:19:05,VALID,917.822,VALID,0,VALID,95.4452,VALID,0.107441,VALID,20.678,VALID,5,VALID,0,
2012-12-13, 00:20:05,VALID,917.809,VALID,0,VALID,95.3918,VALID,0,VALID,20.6585,VALID,5,VALID,0,
2012-12-13, 00:21:05,VALID,917.771,VALID,0,VALID,95.2927,VALID,0.107441,VALID,20.6194,VALID,5,VALID,0,
2012-12-13, 00:22:05,VALID,917.765,VALID,0,VALID,95.3232,VALID,0.107441,VALID,20.6194,VALID,17,VALID,0,
2012-12-13, 00:23:05,VALID,917.764,VALID,0,VALID,95.4299,VALID,0.107441,VALID,20.639,VALID,18,VALID,0,
2012-12-13, 00:24:05,VALID,917.737,VALID,0,VALID,95.4604,VALID,0.107441,VALID,20.6585,VALID,18,VALID,0,
2012-12-13, 00:25:05,VALID,917.728,VALID,0,VALID,95.4375,VALID,0,VALID,20.6585,VALID,18,VALID,0,
2012-12-13, 00:26:05,VALID,917.725,VALID,0,VALID,95.3689,VALID,0,VALID,20.639,VALID,18,VALID,0,
2012-12-13, 00:27:05,VALID,917.706,VALID,0,VALID,95.4299,VALID,0,VALID,20.6374,VALID,18,VALID,0,
2012-12-13, 00:28:05,VALID,917.721,VALID,0,VALID,95.5671,VALID,0,VALID,20.678,VALID,18,VALID,0,
2012-12-13, 00:29:05,VALID,917.713,VALID,0,VALID,95.5214,VALID,0.107441,VALID,20.678,VALID,18,VALID,0,
2012-12-13, 00:30:05,VALID,917.72,VALID,0,VALID,95.4833,VALID,0.107441,VALID,20.6975,VALID,18,VALID,0,
2012-12-13, 00:31:05,VALID,917.721,VALID,0,VALID,95.4909,VALID,0,VALID,20.678,VALID,18,VALID,0,
2012-12-13, 00:32:05,VALID,917.749,VALID,0,VALID,95.4528,VALID,0,VALID,20.678,VALID,18,VALID,0,
2012-12-13, 00:33:05,VALID,917.733,VALID,0,VALID,95.4452,VALID,0,VALID,20.6585,VALID,18,VALID,0,
2012-12-13, 00:34:05,VALID,917.75,VALID,0,VALID,95.4985,VALID,0.107441,VALID,20.678,VALID,18,VALID,0,
2012-12-13, 00:35:05,VALID,917.775,VALID,0,VALID,95.4757,VALID,0,VALID,20.699,VALID,18,VALID,0,
2012-12-13, 00:36:05,VALID,917.775,VALID,0,VALID,95.468,VALID,0.107441,VALID,20.6975,VALID,18,VALID,0,
2012-12-13, 00:37:05,VALID,917.779,VALID,0,VALID,95.4833,VALID,0,VALID,20.717,VALID,18,VALID,0,
2012-12-13, 00:38:05,VALID,917.821,VALID,0,VALID,95.3766,VALID,0,VALID,20.678,VALID,18,VALID,0,
2012-12-13, 00:39:05,VALID,917.816,VALID,0,VALID,95.3842,VALID,0,VALID,20.717,VALID,17,VALID,0,
2012-12-13, 00:40:05,VALID,917.844,VALID,0,VALID,95.4528,VALID,0,VALID,20.7576,VALID,17,VALID,0,
2012-12-13, 00:41:05,VALID,917.855,VALID,0,VALID,95.3156,VALID,0,VALID,20.7365,VALID,6,VALID,0,
2012-12-13, 00:42:05,VALID,917.893,VALID,0,VALID,95.2622,VALID,0.107441,VALID,20.756,VALID,6,VALID,0,
2012-12-13, 00:43:05,VALID,917.902,VALID,0,VALID,95.2241,VALID,0,VALID,20.7365,VALID,6,VALID,0,
2012-12-13, 00:44:05,VALID,917.901,VALID,0,VALID,95.2165,VALID,0,VALID,20.717,VALID,6,VALID,0,
2012-12-13, 00:45:05,VALID,917.914,VALID,0,VALID,95.3384,VALID,0,VALID,20.7365,VALID,6,VALID,0,
2012-12-13, 00:46:05,VALID,917.93,VALID,0,VALID,95.3689,VALID,0,VALID,20.7365,VALID,6,VALID,0,
2012-12-13, 00:47:05,VALID,917.927,VALID,0,VALID,95.4299,VALID,0,VALID,20.7365,VALID,6,VALID,0,
2012-12-13, 00:48:05,VALID,917.936,VALID,0,VALID,95.468,VALID,0,VALID,20.7365,VALID,6,VALID,0,
2012-12-13, 00:49:05,VALID,917.913,VALID,0,VALID,95.59,VALID,0,VALID,20.756,VALID,6,VALID,0,
2012-12-13, 00:50:05,VALID,917.947,VALID,0,VALID,95.5671,VALID,0,VALID,20.7755,VALID,6,VALID,0,
2012-12-13, 00:51:05,VALID,917.953,VALID,0,VALID,95.529,VALID,0,VALID,20.7771,VALID,6,VALID,0,
2012-12-13, 00:52:05,VALID,917.964,VALID,0,VALID,95.5976,VALID,0,VALID,20.7755,VALID,6,VALID,0,
2012-12-13, 00:53:05,VALID,917.927,VALID,0,VALID,95.6205,VALID,0,VALID,20.756,VALID,6,VALID,0,
2012-12-13, 00:54:05,VALID,917.935,VALID,0,VALID,95.6434,VALID,0,VALID,20.756,VALID,6,VALID,0,
2012-12-13, 00:55:05,VALID,917.939,VALID,0,VALID,95.5519,VALID,0,VALID,20.717,VALID,6,VALID,0,
2012-12-13, 00:56:05,VALID,917.891,VALID,0,VALID,95.5443,VALID,0,VALID,20.717,VALID,6,VALID,0,
2012-12-13, 00:57:05,VALID,917.874,VALID,0,VALID,95.5671,VALID,0,VALID,20.717,VALID,6,VALID,0,
2012-12-13, 00:58:05,VALID,917.864,VALID,0,VALID,95.6357,VALID,0.107441,VALID,20.6975,VALID,5,VALID,0,
2012-12-13, 00:59:05,VALID,917.863,VALID,0,VALID,95.6281,VALID,0,VALID,20.6975,VALID,5,VALID,0,
2012-12-13, 01:00:05,VALID,917.85,VALID,0,VALID,95.6662,VALID,0,VALID,20.678,VALID,5,VALID,0,
2012-12-13, 01:01:05,VALID,917.825,VALID,0,VALID,95.6891,VALID,0,VALID,20.678,VALID,6,VALID,0,
2012-12-13, 01:02:05,VALID,917.82,VALID,0,VALID,95.7349,VALID,0,VALID,20.678,VALID,5,VALID,0,
2012-12-13, 01:03:05,VALID,917.81,VALID,0,VALID,95.7654,VALID,0,VALID,20.6975,VALID,6,VALID,0,
2012-12-13, 01:04:05,VALID,917.778,VALID,0,VALID,95.7654,VALID,0,VALID,20.6975,VALID,5,VALID,0,
2012-12-13, 01:05:05,VALID,917.791,VALID,0,VALID,95.8187,VALID,0,VALID,20.6975,VALID,6,VALID,0,
2012-12-13, 01:06:05,VALID,917.732,VALID,0,VALID,95.8187,VALID,0,VALID,20.717,VALID,5,VALID,0,
2012-12-13, 01:07:05,VALID,917.707,VALID,0,VALID,95.8797,VALID,0,VALID,20.7365,VALID,6,VALID,0,
2012-12-13, 01:08:05,VALID,917.699,VALID,0,VALID,95.9102,VALID,0,VALID,20.756,VALID,5,VALID,0,
2012-12-13, 01:09:05,VALID,917.67,VALID,0,VALID,95.8187,VALID,0,VALID,20.756,VALID,6,VALID,0,
2012-12-13, 01:10:05,VALID,917.689,VALID,0,VALID,95.8568,VALID,0,VALID,20.7365,VALID,5,VALID,0,
2012-12-13, 01:11:05,VALID,917.652,VALID,0,VALID,95.8645,VALID,0,VALID,20.7755,VALID,6,VALID,0,
2012-12-13, 01:12:05,VALID,917.613,VALID,0,VALID,95.8263,VALID,0,VALID,20.795,VALID,5,VALID,0,
2012-12-13, 01:13:05,VALID,917.62,VALID,0,VALID,95.7882,VALID,0,VALID,20.7966,VALID,5,VALID,0,
2012-12-13, 01:14:05,VALID,917.604,VALID,0,VALID,95.7425,VALID,0,VALID,20.7755,VALID,5,VALID,0,
2012-12-13, 01:15:05,VALID,917.602,VALID,0,VALID,95.7349,VALID,0,VALID,20.7755,VALID,5,VALID,0,
2012-12-13, 01:16:05,VALID,917.574,VALID,0,VALID,95.7501,VALID,0,VALID,20.7966,VALID,5,VALID,0,
2012-12-13, 01:17:05,VALID,917.575,VALID,0,VALID,95.7501,VALID,0,VALID,20.7755,VALID,5,VALID,0,
2012-12-13, 01:18:05,VALID,917.568,VALID,0,VALID,95.7349,VALID,0,VALID,20.795,VALID,5,VALID,0,
2012-12-13, 01:19:05,VALID,917.534,VALID,0,VALID,95.6967,VALID,0,VALID,20.795,VALID,5,VALID,0,
2012-12-13, 01:20:05,VALID,917.542,VALID,0,VALID,95.6815,VALID,0,VALID,20.795,VALID,6,VALID,0,
2012-12-13, 01:21:05,VALID,917.514,VALID,0,VALID,95.6662,VALID,0,VALID,20.795,VALID,6,VALID,0,
2012-12-13, 01:22:05,VALID,917.44,VALID,0,VALID,95.6357,VALID,0,VALID,20.7755,VALID,6,VALID,0,
2012-12-13, 01:23:05,VALID,917.418,VALID,0,VALID,95.5595,VALID,0,VALID,20.756,VALID,6,VALID,0,
2012-12-13, 01:24:05,VALID,917.419,VALID,0,VALID,95.5824,VALID,0.107441,VALID,20.7154,VALID,5,VALID,0,
2012-12-13, 01:25:05,VALID,917.426,VALID,0,VALID,95.6357,VALID,0.107441,VALID,20.7365,VALID,5,VALID,0,
2012-12-13, 01:26:05,VALID,917.423,VALID,0,VALID,95.6967,VALID,0.107441,VALID,20.7365,VALID,5,VALID,0,
2012-12-13, 01:27:05,VALID,917.41,VALID,0,VALID,95.7425,VALID,0.107441,VALID,20.756,VALID,5,VALID,0,
2012-12-13, 01:28:05,VALID,917.42,VALID,0,VALID,95.7196,VALID,0.107441,VALID,20.7544,VALID,6,VALID,0,
2012-12-13, 01:29:05,VALID,917.405,VALID,0,VALID,95.6053,VALID,0.107441,VALID,20.7365,VALID,5,VALID,0,
2012-12-13, 01:30:05,VALID,917.381,VALID,0,VALID,95.59,VALID,0,VALID,20.717,VALID,6,VALID,0,
2012-12-13, 01:31:05,VALID,917.349,VALID,0,VALID,95.6053,VALID,0,VALID,20.6975,VALID,5,VALID,0,
2012-12-13, 01:32:05,VALID,917.331,VALID,0,VALID,95.651,VALID,0.107441,VALID,20.6959,VALID,5,VALID,0,
2012-12-13, 01:33:05,VALID,917.305,VALID,0,VALID,95.59,VALID,0,VALID,20.6585,VALID,6,VALID,0,
2012-12-13, 01:34:05,VALID,917.257,VALID,0,VALID,95.6053,VALID,0,VALID,20.6585,VALID,6,VALID,0,
2012-12-13, 01:35:05,VALID,917.245,VALID,0,VALID,95.6129,VALID,0.107441,VALID,20.5999,VALID,6,VALID,0,
2012-12-13, 01:36:05,VALID,917.234,VALID,0,VALID,95.651,VALID,0,VALID,20.5804,VALID,6,VALID,0,
2012-12-13, 01:37:05,VALID,917.206,VALID,0,VALID,95.7272,VALID,0.107441,VALID,20.5414,VALID,6,VALID,0,
2012-12-13, 01:38:05,VALID,917.2,VALID,0,VALID,95.8187,VALID,0,VALID,20.5024,VALID,72,VALID,0,
2012-12-13, 01:39:05,VALID,917.19,VALID,0,VALID,95.8492,VALID,0.107441,VALID,20.4829,VALID,72,VALID,0,
2012-12-13, 01:40:05,VALID,917.145,VALID,0,VALID,95.9407,VALID,0.107441,VALID,20.465,VALID,73,VALID,0,
2012-12-13, 01:41:05,VALID,917.144,VALID,0,VALID,96.0322,VALID,0,VALID,20.4634,VALID,73,VALID,0,
2012-12-13, 01:42:05,VALID,917.119,VALID,0,VALID,96.0398,VALID,0,VALID,20.4439,VALID,73,VALID,0,
2012-12-13, 01:43:05,VALID,917.081,VALID,0,VALID,96.0932,VALID,0,VALID,20.4049,VALID,73,VALID,0,
2012-12-13, 01:44:05,VALID,917.081,VALID,0,VALID,96.1465,VALID,0,VALID,20.3659,VALID,73,VALID,0,
2012-12-13, 01:45:05,VALID,917.042,VALID,0,VALID,96.1465,VALID,0.107441,VALID,20.3659,VALID,72,VALID,0,
2012-12-13, 01:46:05,VALID,917,VALID,0,VALID,96.2075,VALID,0,VALID,20.3479,VALID,72,VALID,0,
2012-12-13, 01:47:05,VALID,916.986,VALID,0,VALID,96.2228,VALID,0,VALID,20.3074,VALID,73,VALID,0,
2012-12-13, 01:48:05,VALID,916.982,VALID,0,VALID,96.2761,VALID,0.107441,VALID,20.2879,VALID,72,VALID,0,
2012-12-13, 01:49:05,VALID,916.962,VALID,0,VALID,96.3219,VALID,0.107441,VALID,20.2684,VALID,72,VALID,0,
2012-12-13, 01:50:05,VALID,916.972,VALID,0.2,VALID,96.36,VALID,0,VALID,20.2684,VALID,73,VALID,0,
2012-12-13, 01:51:05,VALID,916.962,VALID,0,VALID,96.4133,VALID,0,VALID,20.3074,VALID,73,VALID,0,
2012-12-13, 01:52:05,VALID,916.954,VALID,0,VALID,96.4362,VALID,0.107441,VALID,20.2879,VALID,72,VALID,0,
2012-12-13, 01:53:05,VALID,916.964,VALID,0,VALID,96.4667,VALID,0,VALID,20.2489,VALID,72,VALID,0,
2012-12-13, 01:54:05,VALID,916.952,VALID,0,VALID,96.4591,VALID,0,VALID,20.2489,VALID,73,VALID,0,
2012-12-13, 01:55:04,VALID,916.961,VALID,0,VALID,96.4667,VALID,0,VALID,20.2293,VALID,72,VALID,0,
2012-12-13, 01:56:04,VALID,916.912,VALID,0,VALID,96.4896,VALID,0,VALID,20.1903,VALID,72,VALID,0,
2012-12-13, 01:57:04,VALID,916.924,VALID,0,VALID,96.5124,VALID,0.107441,VALID,20.1903,VALID,72,VALID,0,
2012-12-13, 01:58:04,VALID,916.91,VALID,0,VALID,96.5353,VALID,0,VALID,20.1903,VALID,72,VALID,0,
2012-12-13, 01:59:04,VALID,916.895,VALID,0,VALID,96.5506,VALID,0,VALID,20.1903,VALID,72,VALID,0,
2012-12-13, 02:00:04,VALID,916.882,VALID,0,VALID,96.6115,VALID,0,VALID,20.1708,VALID,72,VALID,0,
2012-12-13, 02:01:04,VALID,916.867,VALID,0,VALID,96.6192,VALID,0,VALID,20.1919,VALID,72,VALID,0,
2012-12-13, 02:02:04,VALID,916.884,VALID,0,VALID,96.6344,VALID,0.107441,VALID,20.1708,VALID,72,VALID,0,
2012-12-13, 02:03:04,VALID,916.884,VALID,0,VALID,96.6573,VALID,0,VALID,20.1724,VALID,73,VALID,0,
2012-12-13, 02:04:04,VALID,916.849,VALID,0,VALID,96.6802,VALID,0,VALID,20.1513,VALID,72,VALID,0,
2012-12-13, 02:05:04,VALID,916.861,VALID,0,VALID,96.6954,VALID,0,VALID,20.1513,VALID,72,VALID,0,
2012-12-13, 02:06:04,VALID,916.832,VALID,0,VALID,96.7107,VALID,0.107441,VALID,20.1108,VALID,72,VALID,0,
2012-12-13, 02:07:04,VALID,916.814,VALID,0,VALID,96.7259,VALID,0,VALID,20.1318,VALID,72,VALID,0,
2012-12-13, 02:08:04,VALID,916.806,VALID,0,VALID,96.764,VALID,0,VALID,20.1318,VALID,72,VALID,0,
2012-12-13, 02:09:04,VALID,916.779,VALID,0,VALID,96.7793,VALID,0,VALID,20.1724,VALID,72,VALID,0,
2012-12-13, 02:10:04,VALID,916.779,VALID,0,VALID,96.7793,VALID,0.107441,VALID,20.1529,VALID,72,VALID,0,
2012-12-13, 02:11:04,VALID,916.767,VALID,0.2,VALID,96.764,VALID,0.107441,VALID,20.1123,VALID,72,VALID,0,
2012-12-13, 02:12:04,VALID,916.76,VALID,0,VALID,96.8098,VALID,0,VALID,20.1529,VALID,72,VALID,0,
2012-12-13, 02:13:04,VALID,916.757,VALID,0,VALID,96.8326,VALID,0,VALID,20.1513,VALID,72,VALID,0,
2012-12-13, 02:14:04,VALID,916.743,VALID,0,VALID,96.8326,VALID,0,VALID,20.1513,VALID,72,VALID,0,
2012-12-13, 02:15:04,VALID,916.745,VALID,0,VALID,96.8555,VALID,0,VALID,20.1318,VALID,72,VALID,0,
2012-12-13, 02:16:04,VALID,916.705,VALID,0,VALID,96.8479,VALID,0,VALID,20.1318,VALID,72,VALID,0,
2012-12-13, 02:17:04,VALID,916.744,VALID,0,VALID,96.8784,VALID,0,VALID,20.1318,VALID,72,VALID,0,
2012-12-13, 02:18:04,VALID,916.73,VALID,0,VALID,96.8784,VALID,0,VALID,20.1318,VALID,72,VALID,0,
2012-12-13, 02:19:04,VALID,916.689,VALID,0,VALID,96.8784,VALID,0,VALID,20.1513,VALID,72,VALID,0,
2012-12-13, 02:20:04,VALID,916.683,VALID,0,VALID,96.8936,VALID,0.107441,VALID,20.1513,VALID,72,VALID,0,
2012-12-13, 02:21:04,VALID,916.662,VALID,0,VALID,96.8936,VALID,0,VALID,20.1708,VALID,72,VALID,0,
2012-12-13, 02:22:04,VALID,916.644,VALID,0,VALID,96.9165,VALID,0,VALID,20.1708,VALID,72,VALID,0,
2012-12-13, 02:23:04,VALID,916.646,VALID,0,VALID,96.9012,VALID,0,VALID,20.1513,VALID,72,VALID,0,
2012-12-13, 02:24:04,VALID,916.621,VALID,0.2,VALID,96.9241,VALID,0,VALID,20.1708,VALID,72,VALID,0,
2012-12-13, 02:25:04,VALID,916.627,VALID,0,VALID,96.9165,VALID,0,VALID,20.1513,VALID,61,VALID,0,
2012-12-13, 02:26:04,VALID,916.605,VALID,0,VALID,96.9165,VALID,0,VALID,20.1123,VALID,61,VALID,0,
2012-12-13, 02:27:04,VALID,916.636,VALID,0,VALID,96.9317,VALID,0,VALID,20.0928,VALID,61,VALID,0,
2012-12-13, 02:28:04,VALID,916.597,VALID,0,VALID,96.9241,VALID,0,VALID,20.1123,VALID,58,VALID,0,
2012-12-13, 02:29:04,VALID,916.584,VALID,0,VALID,96.9165,VALID,0,VALID,20.1123,VALID,24,VALID,0,
2012-12-13, 02:30:04,VALID,916.59,VALID,0,VALID,96.9317,VALID,0,VALID,20.1123,VALID,23,VALID,0,
2012-12-13, 02:31:04,VALID,916.57,VALID,0.2,VALID,96.9394,VALID,0,VALID,20.1334,VALID,24,VALID,0,
2012-12-13, 02:32:04,VALID,916.586,VALID,0,VALID,96.9622,VALID,0.107441,VALID,20.1123,VALID,23,VALID,0,
2012-12-13, 02:33:04,VALID,916.565,VALID,0,VALID,96.9622,VALID,0,VALID,20.0733,VALID,23,VALID,0,
2012-12-13, 02:34:04,VALID,916.545,VALID,0,VALID,96.9622,VALID,0,VALID,20.1139,VALID,24,VALID,0,
2012-12-13, 02:35:04,VALID,916.544,VALID,0,VALID,96.9546,VALID,0,VALID,20.0733,VALID,23,VALID,0,
2012-12-13, 02:36:04,VALID,916.505,VALID,0,VALID,96.9775,VALID,0,VALID,20.0733,VALID,23,VALID,0,
2012-12-13, 02:37:04,VALID,916.528,VALID,0,VALID,96.9775,VALID,0,VALID,20.0733,VALID,23,VALID,0,
2012-12-13, 02:38:04,VALID,916.531,VALID,0,VALID,96.9851,VALID,0,VALID,20.0944,VALID,23,VALID,0,
2012-12-13, 02:39:04,VALID,916.505,VALID,0.2,VALID,97.008,VALID,0,VALID,20.0733,VALID,23,VALID,0,
2012-12-13, 02:40:04,VALID,916.467,VALID,0,VALID,97.008,VALID,0,VALID,20.0928,VALID,23,VALID,0,
2012-12-13, 02:41:04,VALID,916.469,VALID,0,VALID,97.0232,VALID,0.107441,VALID,20.0928,VALID,23,VALID,0,
2012-12-13, 02:42:04,VALID,916.48,VALID,0,VALID,97.0385,VALID,0,VALID,20.0928,VALID,23,VALID,0,
2012-12-13, 02:43:04,VALID,916.473,VALID,0,VALID,97.0308,VALID,0,VALID,20.1139,VALID,23,VALID,0,
2012-12-13, 02:44:04,VALID,916.47,VALID,0,VALID,97.0308,VALID,0,VALID,20.1139,VALID,23,VALID,0,
2012-12-13, 02:45:04,VALID,916.471,VALID,0.2,VALID,97.0308,VALID,0,VALID,20.1529,VALID,23,VALID,0,
2012-12-13, 02:46:04,VALID,916.454,VALID,0,VALID,97.0613,VALID,0,VALID,20.1318,VALID,23,VALID,0,
2012-12-13, 02:47:04,VALID,916.481,VALID,0,VALID,97.0461,VALID,0,VALID,20.1318,VALID,23,VALID,0,
2012-12-13, 02:48:04,VALID,916.476,VALID,0,VALID,97.0461,VALID,0,VALID,20.1123,VALID,23,VALID,0,
2012-12-13, 02:49:04,VALID,916.475,VALID,0,VALID,97.069,VALID,0.107441,VALID,20.1318,VALID,23,VALID,0,
2012-12-13, 02:50:04,VALID,916.464,VALID,0,VALID,97.0385,VALID,0.107441,VALID,20.1724,VALID,23,VALID,0,
2012-12-13, 02:51:04,VALID,916.481,VALID,0.2,VALID,97.069,VALID,0,VALID,20.1513,VALID,23,VALID,0,
2012-12-13, 02:52:04,VALID,916.473,VALID,0,VALID,97.0461,VALID,0,VALID,20.1318,VALID,23,VALID,0,
2012-12-13, 02:53:04,VALID,916.436,VALID,0,VALID,97.0537,VALID,0,VALID,20.1529,VALID,23,VALID,0,
2012-12-13, 02:54:04,VALID,916.434,VALID,0,VALID,97.0537,VALID,0,VALID,20.1513,VALID,23,VALID,0,
2012-12-13, 02:55:04,VALID,916.398,VALID,0,VALID,97.069,VALID,0,VALID,20.1318,VALID,150,VALID,0,
2012-12-13, 02:56:04,VALID,916.415,VALID,0,VALID,97.0613,VALID,0,VALID,20.1318,VALID,150,VALID,0,
2012-12-13, 02:57:04,VALID,916.393,VALID,0,VALID,97.0766,VALID,0,VALID,20.1529,VALID,150,VALID,0,
2012-12-13, 02:58:04,VALID,916.353,VALID,0,VALID,97.0842,VALID,0,VALID,20.1123,VALID,150,VALID,0,
2012-12-13, 02:59:04,VALID,916.363,VALID,0,VALID,97.0842,VALID,0.107441,VALID,20.1334,VALID,150,VALID,0,
2012-12-13, 03:00:04,VALID,916.356,VALID,0.2,VALID,97.0766,VALID,0,VALID,20.1318,VALID,150,VALID,0,
2012-12-13, 03:01:04,VALID,916.34,VALID,0,VALID,97.0613,VALID,0,VALID,20.1529,VALID,150,VALID,0,
2012-12-13, 03:02:04,VALID,916.346,VALID,0,VALID,97.069,VALID,0,VALID,20.1529,VALID,150,VALID,0,
2012-12-13, 03:03:04,VALID,916.329,VALID,0,VALID,97.0842,VALID,0,VALID,20.1334,VALID,150,VALID,0,
2012-12-13, 03:04:04,VALID,916.299,VALID,0,VALID,97.0766,VALID,0,VALID,20.1139,VALID,150,VALID,0,
2012-12-13, 03:05:04,VALID,916.275,VALID,0,VALID,97.069,VALID,0,VALID,20.1139,VALID,150,VALID,0,
2012-12-13, 03:06:04,VALID,916.301,VALID,0,VALID,97.0842,VALID,0,VALID,20.0928,VALID,150,VALID,0,
2012-12-13, 03:07:04,VALID,916.262,VALID,0,VALID,97.0994,VALID,0,VALID,20.1139,VALID,150,VALID,0,
2012-12-13, 03:08:04,VALID,916.252,VALID,0,VALID,97.0766,VALID,0,VALID,20.1139,VALID,150,VALID,0,
2012-12-13, 03:09:04,VALID,916.263,VALID,0.2,VALID,97.069,VALID,0,VALID,20.1139,VALID,150,VALID,0,
2012-12-13, 03:10:04,VALID,916.229,VALID,0,VALID,97.0842,VALID,0.107441,VALID,20.1139,VALID,150,VALID,0,
2012-12-13, 03:11:04,VALID,916.218,VALID,0,VALID,97.0994,VALID,0,VALID,20.0733,VALID,150,VALID,0,
2012-12-13, 03:12:04,VALID,916.244,VALID,0,VALID,97.1071,VALID,0.107441,VALID,20.0733,VALID,150,VALID,0,
2012-12-13, 03:13:04,VALID,916.237,VALID,0,VALID,97.0766,VALID,0,VALID,20.0944,VALID,150,VALID,0,
2012-12-13, 03:14:04,VALID,916.214,VALID,0,VALID,97.0994,VALID,0,VALID,20.0553,VALID,150,VALID,0,
2012-12-13, 03:15:04,VALID,916.215,VALID,0,VALID,97.0994,VALID,0,VALID,20.0733,VALID,150,VALID,0,
2012-12-13, 03:16:04,VALID,916.209,VALID,0,VALID,97.1147,VALID,0,VALID,20.0944,VALID,150,VALID,0,
2012-12-13, 03:17:04,VALID,916.183,VALID,0,VALID,97.0994,VALID,0,VALID,20.1139,VALID,150,VALID,0,
2012-12-13, 03:18:04,VALID,916.187,VALID,0,VALID,97.1147,VALID,0,VALID,20.1139,VALID,150,VALID,0,
2012-12-13, 03:19:04,VALID,916.178,VALID,0,VALID,97.1147,VALID,0,VALID,20.0928,VALID,150,VALID,0,
2012-12-13, 03:20:04,VALID,916.169,VALID,0,VALID,97.1452,VALID,0,VALID,20.1139,VALID,150,VALID,0,
2012-12-13, 03:21:04,VALID,916.184,VALID,0,VALID,97.1071,VALID,0,VALID,20.1334,VALID,150,VALID,0,
2012-12-13, 03:22:04,VALID,916.172,VALID,0.2,VALID,97.1376,VALID,0,VALID,20.1139,VALID,150,VALID,0,
2012-12-13, 03:23:04,VALID,916.182,VALID,0,VALID,97.1223,VALID,0,VALID,20.0944,VALID,150,VALID,0,
2012-12-13, 03:24:04,VALID,916.16,VALID,0,VALID,97.1299,VALID,0,VALID,20.1139,VALID,150,VALID,0,
2012-12-13, 03:25:04,VALID,916.143,VALID,0,VALID,97.1147,VALID,0.107441,VALID,20.1139,VALID,150,VALID,0,
2012-12-13, 03:26:04,VALID,916.137,VALID,0,VALID,97.1299,VALID,0,VALID,20.1139,VALID,150,VALID,0,
2012-12-13, 03:27:04,VALID,916.117,VALID,0,VALID,97.1376,VALID,0,VALID,20.1334,VALID,150,VALID,0,
2012-12-13, 03:28:04,VALID,916.123,VALID,0,VALID,97.1299,VALID,0,VALID,20.1334,VALID,150,VALID,0,
2012-12-13, 03:29:04,VALID,916.103,VALID,0,VALID,97.1299,VALID,0,VALID,20.1318,VALID,150,VALID,0,
2012-12-13, 03:30:04,VALID,916.086,VALID,0,VALID,97.1299,VALID,0,VALID,20.1529,VALID,150,VALID,0,
2012-12-13, 03:31:04,VALID,916.085,VALID,0,VALID,97.1299,VALID,0,VALID,20.1529,VALID,150,VALID,0,
2012-12-13, 03:32:04,VALID,916.046,VALID,0,VALID,97.1376,VALID,0,VALID,20.1724,VALID,150,VALID,0,
2012-12-13, 03:33:04,VALID,916.043,VALID,0,VALID,97.1528,VALID,0,VALID,20.1724,VALID,150,VALID,0,
2012-12-13, 03:34:04,VALID,916.055,VALID,0,VALID,97.1528,VALID,0,VALID,20.1724,VALID,150,VALID,0,
2012-12-13, 03:35:04,VALID,916.035,VALID,0,VALID,97.1452,VALID,0.107441,VALID,20.1318,VALID,150,VALID,0,
2012-12-13, 03:36:04,VALID,916.034,VALID,0,VALID,97.1376,VALID,0,VALID,20.1513,VALID,150,VALID,0,
2012-12-13, 03:37:04,VALID,916.02,VALID,0,VALID,97.1452,VALID,0,VALID,20.1724,VALID,150,VALID,0,
2012-12-13, 03:38:04,VALID,916.013,VALID,0.2,VALID,97.1376,VALID,0,VALID,20.1724,VALID,150,VALID,0,
2012-12-13, 03:39:04,VALID,916,VALID,0,VALID,97.1299,VALID,0,VALID,20.1513,VALID,150,VALID,0,
2012-12-13, 03:40:04,VALID,916.012,VALID,0,VALID,97.1223,VALID,0,VALID,20.1708,VALID,150,VALID,0,
2012-12-13, 03:41:04,VALID,915.966,VALID,0,VALID,97.1376,VALID,0,VALID,20.1919,VALID,150,VALID,0,
2012-12-13, 03:42:04,VALID,915.967,VALID,0,VALID,97.1299,VALID,0,VALID,20.1903,VALID,150,VALID,0,
2012-12-13, 03:43:04,VALID,915.976,VALID,0,VALID,97.1223,VALID,0,VALID,20.1724,VALID,150,VALID,0,
2012-12-13, 03:44:04,VALID,915.961,VALID,0,VALID,97.1376,VALID,0,VALID,20.1529,VALID,150,VALID,0,
2012-12-13, 03:45:04,VALID,915.947,VALID,0,VALID,97.1299,VALID,0,VALID,20.1529,VALID,150,VALID,0,
2012-12-13, 03:46:04,VALID,915.956,VALID,0,VALID,97.1376,VALID,0,VALID,20.1334,VALID,150,VALID,0,
2012-12-13, 03:47:04,VALID,915.95,VALID,0,VALID,97.1299,VALID,0,VALID,20.0944,VALID,150,VALID,0,
2012-12-13, 03:48:04,VALID,915.903,VALID,0,VALID,97.1299,VALID,0,VALID,20.0538,VALID,150,VALID,0,
2012-12-13, 03:49:04,VALID,915.923,VALID,0,VALID,97.1223,VALID,0,VALID,20.0358,VALID,150,VALID,0,
2012-12-13, 03:50:04,VALID,915.925,VALID,0,VALID,97.1147,VALID,0,VALID,20.0163,VALID,150,VALID,0,
2012-12-13, 03:51:04,VALID,915.905,VALID,0,VALID,97.1147,VALID,0,VALID,19.9758,VALID,150,VALID,0,
2012-12-13, 03:52:04,VALID,915.898,VALID,0,VALID,97.1147,VALID,0,VALID,19.9968,VALID,150,VALID,0,
2012-12-13, 03:53:04,VALID,915.91,VALID,0,VALID,97.1071,VALID,0,VALID,19.9773,VALID,150,VALID,0,
2012-12-13, 03:54:04,VALID,915.913,VALID,0,VALID,97.1376,VALID,0,VALID,19.9773,VALID,150,VALID,0,
2012-12-13, 03:55:04,VALID,915.933,VALID,0,VALID,97.1299,VALID,0,VALID,19.9758,VALID,150,VALID,0,
2012-12-13, 03:56:04,VALID,915.91,VALID,0,VALID,97.1223,VALID,0,VALID,19.9368,VALID,150,VALID,0,
2012-12-13, 03:57:04,VALID,915.902,VALID,0,VALID,97.1376,VALID,0,VALID,19.9578,VALID,150,VALID,0,
2012-12-13, 03:58:04,VALID,915.913,VALID,0,VALID,97.1376,VALID,0,VALID,19.9368,VALID,150,VALID,0,
2012-12-13, 03:59:04,VALID,915.927,VALID,0,VALID,97.1452,VALID,0,VALID,19.9383,VALID,150,VALID,0,